Wiley, CO

8:03 AM MDT on August 29, 2016 (GMT -0600)
Lamar Municipal

Weather History for KLAA - April, 2012

Change the Weather History Date:

Sunday, April 22, 2012

  Actual Average Record
Temperature  
Mean Temperature 56 °F 54 °F  
Max Temperature 71 °F 71 °F 98 °F (1989)
Min Temperature 40 °F 37 °F 23 °F (1992)
Degree Days  
Heating Degree Days 9 11  
Month to date heating degree days 222 313  
Since 1 July heating degree days 4838 5322  
Cooling Degree Days 0 0  
Month to date cooling degree days 2 0  
Year to date cooling degree days 7 0  
Growing Degree Days 6 (Base 50)    
Moisture  
Dew Point 37 °F    
Average Humidity 59    
Maximum Humidity 89    
Minimum Humidity 29    
Precipitation  
Precipitation 0.00 in 0.06 in 1.23 in (1983)
Month to date precipitation 1.21 0.85  
Year to date precipitation 1.85 2.36  
Snow  
Snow 0.00 in - - ()
Month to date snowfall 0.0  
Snow Depth 0.00 in    
Sea Level Pressure  
Sea Level Pressure 30.18 in    
Wind  
Wind Speed 8 mph (ESE)    
Max Wind Speed 17 mph    
Max Gust Speed 25 mph    
Visibility 10 miles    
Events      
T = Trace of Precipitation, MM = Missing Value Source: NWS Daily Summary

Daily Weather History Graph

Daily Weather History Graph

Search for Another Location

Airport or City:

Trip Planner

Search our weather history database for the weather conditions in past years. The results will help you decide how hot, cold, wet, or windy it might be!

Date:

Astronomy

Apr. 22, 2012 Rise Set
Actual Time 6:04 AM MDT 7:33 PM MDT
Civil Twilight 5:37 AM MDT 8:01 PM MDT
Nautical Twilight 5:04 AM MDT 8:35 PM MDT
Astronomical Twilight 4:28 AM MDT 9:10 PM MDT
Moon 6:39 AM MDT (4/22) 9:10 PM MDT (4/22)
Length of Visible Light 14h 24m
Length of Day
13h 28m
New Moon, 2% of the Moon is Illuminated
Apr 22
New Moon
Apr 29
First Quarter
May 5
Full
May 12
Last Quarter
May 20
New

Hourly Weather History & Observations

Time (MDT) Temp. Windchill Dew Point Humidity Pressure Visibility Wind Dir Wind Speed Gust Speed Precip Events Conditions
12:53 AM 46.9 °F - 41.0 °F 80% 30.10 in 10.0 mi Calm Calm - N/A   Clear
1:53 AM 46.0 °F 43.9 °F 41.0 °F 83% 30.12 in 10.0 mi NNE 4.6 mph - N/A   Clear
2:53 AM 43.0 °F - 39.0 °F 86% 30.13 in 10.0 mi Calm Calm - N/A   Clear
3:53 AM 42.1 °F - 39.0 °F 89% 30.13 in 10.0 mi Calm Calm - N/A   Clear
4:53 AM 42.1 °F - 37.9 °F 85% 30.14 in 10.0 mi Calm Calm - N/A   Clear
5:53 AM 41.0 °F 38.0 °F 37.9 °F 89% 30.18 in 10.0 mi ENE 4.6 mph - N/A   Clear
6:53 AM 42.1 °F 40.2 °F 39.0 °F 89% 30.22 in 10.0 mi East 3.5 mph - N/A   Clear
7:53 AM 48.9 °F - 37.0 °F 64% 30.25 in 10.0 mi East 13.8 mph - N/A   Clear
8:53 AM 52.0 °F - 34.0 °F 50% 30.27 in 10.0 mi East 11.5 mph - N/A   Clear
9:53 AM 55.0 °F - 32.0 °F 42% 30.28 in 10.0 mi ESE 12.7 mph - N/A   Clear
10:53 AM 57.9 °F - 32.0 °F 37% 30.26 in 10.0 mi ESE 10.4 mph - N/A   Clear
11:53 AM 61.0 °F - 33.1 °F 35% 30.25 in 10.0 mi SE 11.5 mph - N/A   Clear
12:53 PM 64.0 °F - 34.0 °F 33% 30.22 in 10.0 mi SE 8.1 mph - N/A   Clear
1:53 PM 66.9 °F - 36.0 °F 32% 30.20 in 10.0 mi SE 11.5 mph - N/A   Clear
2:53 PM 68.0 °F - 36.0 °F 31% 30.18 in 10.0 mi Variable 4.6 mph - N/A   Clear
3:53 PM 70.0 °F - 37.0 °F 30% 30.15 in 10.0 mi East 4.6 mph - N/A   Clear
4:53 PM 71.1 °F - 37.9 °F 30% 30.13 in 10.0 mi SE 12.7 mph - N/A   Clear
5:53 PM 69.1 °F - 37.9 °F 32% 30.13 in 10.0 mi SE 15.0 mph - N/A   Clear
6:53 PM 66.0 °F - 37.0 °F 34% 30.14 in 10.0 mi ESE 11.5 mph - N/A   Clear
7:53 PM 59.0 °F - 37.9 °F 46% 30.17 in 10.0 mi ESE 9.2 mph - N/A   Clear
8:53 PM 55.9 °F - 37.9 °F 51% 30.18 in 10.0 mi ESE 10.4 mph - N/A   Clear
9:53 PM 54.0 °F - 36.0 °F 51% 30.18 in 10.0 mi SE 11.5 mph - N/A   Clear
10:53 PM 51.1 °F - 36.0 °F 56% 30.20 in 10.0 mi SE 5.8 mph - N/A   Clear
11:53 PM 46.0 °F 43.9 °F 36.0 °F 68% 30.21 in 10.0 mi SE 4.6 mph - N/A   Clear